SCP
0 0 0 0 0 0 0 0 0 0 0 0 0 0 0 0 0 0 0 0 0 0 0 0 0 0 0 0 0 0 0 0 0 0 0 0 0 0 0 0 0 0 0
0 0 0 0 0 0 0 0 0 0 0 0 0 0 0 0 0 0 0 0 0 0 0 0 0 0 0 0 0 0 0 0 0 0 0 0 0 0 0 0 0 0 0
0 0 0 0 0 0 0 0 0 0 0 0 0 0 0 0 0 0 0 0 0 0 0 0 0 0 0 0 0 0 0 0 0 0 0 0 0 0 0 0 0 0 0
0 0 0 0 0 0 0 0 0 0 0 0 0 0 0 0 0 0 0 0 0 0 0 0 0 0 0 0 0 0 0 0 0 0 0 0 0 0 0 0 0 0 0
0 0 0 0 0 0 0 0 0 0 0 0 0 0 0 0 0 0 0 0 0 0 0 0 0 0 0 0 0 0 0 0 0 0 0 0 0 0 0 0 0 0 0
0 0 0 0 0 0 0 0 0 0 0 0 0 0 0 0 0 0 0 0 0 0 0 0 0 0 0 0 0 0 0 0 0 0 0 0 0 0 0 0 0 0 0
0 0 0 0 0 0 0 0 0 0 0 0 0 0 0 0 0 0 0 0 0 0 0 0 0 0 0 0 0 0 0 0 0 0 0 0 0 0 0 0 0 0 0
0 0 0 0 0 0 0 0 0 0 0 0 0 0 0 0 0 0 0 0 0 0 0 0 0 0 0 0 0 0 0 0 0 0 0 0 0 0 0 0 0 0 0
0 0 0 0 0 0 0 0 0 0 0 0 0 0 0 0 0 0 0 0 0 0 0 0 0 0 0 0 0 0 0 0 0 0 0 0 0 0 0 0 0 0 0
0 0 0 0 0 0 0 0 0 0 0 0 0 0 0 0 0 0 0 0 0 0 0 0 0 0 0 0 0 0 0 0 0 0 0 0 0 0 0 0 0 0 0
0 0 0 0 0 0 0 0 0 0 0 0 0 0 0 0 0 0 0 0 0 0 0 0 0 0 0 0 0 0 0 0 0 0 0 0 0 0 0 0 0 0 0
0 0 0 0 0 0 0 0 0 0 0 0 0 0 0 0 0 0 0 0 0 0 0 0 0 0 0 0 0 0 0 0 0 0 0 0 0 0 0 0 0 0 0
0 0 0 0 0 0 0 0 0 0 0 0 0 0 0 0 0 0 0 0 0 0 0 0 0 0 0 0 0 0 0 0 0 0 0 0 0 0 0 0 0 0 0
0 0 0 0 0 0 0 0 0 0 0 0 0 0 0 0 0 0 0 0 0 0 0 0 0 0 0 0 0 0 0 0 0 0 0 0 0 0 0 0 0 0 0
0 0 0 0 0 0 0 0 0 0 0 0 0 0 0 0 0 0 0 0 0 0 0 0 0 0 0 0 0 0 0 0 0 0 0 0 0 0 0 0 0 0 0
0 0 0 0 0 0 0 0 0 0 0 0 0 0 0 0 0 0 0 0 0 0 0 0 0 0 0 0 0 0 0 0 0 0 0 0 0 0 0 0 0 0 0
0 0 0 0 0 0 0 0 0 0 0 0 0 0 0 0 0 0 0 0 0 0 0 0 0 0 0 0 0 0 0 0 0 0 0 0 0 0 0 0 0 0 0
0 0 0 0 0 0 0 0 0 0 0 0 0 0 0 0 0 0 0 0 0 0 0 0 0 0 0 0 0 0 0 0 0 0 0 0 0 0 0 0 0 0 0
0 0 0 0 0 0 0 0 0 0 0 0 0 0 0 0 0 0 0 0 0 0 0 0 0 0 0 0 0 0 0 0 0 0 0 0 0 0 0 0 0 0 0
0 0 0 0 0 0 0 0 0 0 0 0 0 0 0 0 0 0 0 0 0 0 0 0 0 0 0 0 0 0 0 0 0 0 0 0 0 0 0 0 0 0 0
0 0 0 0 0 0 0 0 0 0 0 0 0 0 0 0 0 0 0 0 0 0 0 0 0 0 0 0 0 0 0 0 0 0 0 0 0 0 0 0 0 0 0
0 0 0 0 0 0 0 0 0 0 0 0 0 0 0 0 0 0 0 0 0 0 0 0 0 0 0 0 0 0 0 0 0 0 0 0 0 0 0 0 0 0 0
0 0 0 0 0 0 0 0 0 0 0 0 0 0 0 0 0 0 0 0 0 0 0 0 0 0 0 0 0 0 0 0 0 0 0 0 0 0 0 0 0 0 0
0 0 0 0 0 0 0 0 0 0 0 0 0 0 0 0 0 0 0 0 0 0 0 0 0 0 0 0 0 0 0 0 0 0 0 0 0 0 0 0 0 0 0
0 0 0 0 0 0 0 0 0 0 0 0 0 0 0 0 0 0 0 0 0 0 0 0 0 0 0 0 0 0 0 0 0 0 0 0 0 0 0 0 0 0 0
0 0 0 0 0 0 0 0 0 0 0 0 0 0 0 0 0 0 0 0 0 0 0 0 0 0 0 0 0 0 0 0 0 0 0 0 0 0 0 0 0 0 0
Wind_Speed
12 12 11 11 11 10 10 11 11 9 9 10 10 10 10 9 9 8 8 7 8 7 6 7 7 5 4 4 4 4 4 4 7 5 2 2 2 3 4 3 4 4 5
10 10 11 10 10 10 11 10 10 10 10 10 9 10 9 9 9 10 9 9 9 9 8 7 7 5 6 4 4 5 4 5 5 7 3 2 3 3 3 4 4 4 4
9 10 10 10 11 11 11 10 9 9 9 9 9 10 9 9 9 9 9 9 9 8 7 7 7 6 6 4 4 4 4 3 4 4 4 2 2 2 2 3 4 4 5
8 9 10 11 12 11 10 9 9 9 9 9 9 9 9 8 8 8 8 8 7 7 7 7 6 7 7 6 5 5 4 3 3 3 4 3 3 2 2 3 4 3 5
8 9 11 10 9 9 9 9 8 9 9 9 8 8 7 7 8 9 8 8 7 6 5 6 6 6 7 6 4 4 4 3 3 3 4 3 3 2 3 3 4 4 5
8 9 9 8 9 9 9 9 8 8 8 8 8 8 8 6 9 12 9 7 6 7 6 5 4 5 6 7 6 6 6 4 4 4 4 4 5 4 3 3 3 4 4
8 8 8 9 9 10 9 9 9 9 8 8 8 8 8 8 11 12 11 7 6 6 6 5 3 3 4 3 4 5 5 6 6 4 4 5 4 4 3 4 4 4 5
7 7 8 8 9 8 9 9 9 7 8 8 7 8 7 7 10 11 11 7 5 5 5 6 5 4 4 4 3 3 3 3 3 3 4 4 4 4 4 3 4 4 4
7 8 8 9 9 9 10 10 7 7 7 7 7 7 7 6 10 10 10 5 4 4 4 4 5 4 6 5 3 3 2 2 3 4 4 4 6 6 4 1 1 2 4
9 8 8 8 9 10 10 8 6 6 7 6 6 6 7 6 9 10 10 5 5 4 3 3 5 5 5 5 4 4 4 3 2 1 2 3 3 3 5 2 2 2 3
6 5 6 7 8 8 7 6 6 6 6 5 5 4 5 6 8 11 10 5 5 5 4 3 3 5 5 5 3 3 4 2 2 1 1 1 2 2 2 2 2 2 3
3 4 5 6 6 6 7 6 6 7 7 6 5 4 3 4 6 9 10 8 6 5 4 3 3 5 4 4 3 3 2 1 1 1 1 1 2 2 2 2 3 3 3
3 4 4 4 5 6 7 8 7 7 6 5 5 5 3 3 4 8 9 9 8 4 3 5 5 5 3 2 2 2 1 1 1 1 2 2 2 2 2 2 2 3 4
4 4 4 5 5 5 5 6 7 7 6 6 6 5 4 4 4 4 4 5 6 4 4 5 5 4 2 1 1 1 1 1 1 2 2 1 1 1 1 1 2 2 3
4 4 4 4 5 5 4 4 5 5 7 7 6 7 7 6 7 9 6 5 5 5 5 3 2 2 2 1 1 1 1 1 0 1 1 1 1 2 2 2 1 1 2
4 4 4 4 4 4 4 3 2 3 5 6 6 6 4 6 9 9 9 9 9 9 6 4 3 3 3 3 2 2 1 2 1 1 1 2 2 2 2 2 2 2 3
5 5 4 4 5 5 5 5 4 3 5 6 7 7 6 8 10 10 9 9 9 9 4 4 4 4 3 3 3 2 2 2 2 2 2 2 2 2 2 2 2 3 3
4 5 5 4 5 5 5 5 5 6 4 3 4 7 8 9 9 9 9 7 5 4 3 4 4 3 3 3 3 2 2 2 2 2 2 2 2 2 2 2 3 3 4
3 3 3 4 4 4 4 4 4 5 4 4 3 4 7 7 8 8 8 4 5 4 3 3 3 3 3 3 3 2 2 2 2 2 2 2 2 2 2 2 3 5 4
2 5 5 4 4 4 4 5 5 5 5 4 4 4 5 5 4 4 3 3 3 3 3 3 3 3 3 3 3 3 2 2 2 2 2 2 2 2 2 3 3 3 3
2 4 6 4 4 4 4 4 5 5 5 4 4 4 6 4 4 4 3 3 3 3 3 3 3 3 3 3 3 3 3 3 3 2 2 2 2 2 2 2 3 3 3
3 3 3 4 4 4 4 4 4 5 5 5 4 4 6 3 3 3 3 2 2 2 3 3 3 3 3 3 3 3 3 3 3 3 2 2 2 2 2 2 2 2 3
3 4 4 3 3 5 5 4 4 4 4 5 4 4 4 3 3 3 2 2 2 2 2 2 2 2 2 2 3 3 4 4 3 3 3 3 2 2 2 2 3 3 3
4 4 4 4 4 4 4 4 4 4 4 4 4 4 3 3 3 3 2 2 2 2 2 2 2 3 3 2 2 2 3 3 3 3 4 3 3 3 2 2 3 3 3
3 4 4 4 4 4 4 4 4 4 4 4 4 3 3 3 3 2 2 2 2 2 2 2 2 2 3 3 3 3 5 6 5 3 3 3 3 3 3 3 3 3 3
3 3 4 4 4 4 4 4 4 4 4 4 3 3 3 3 3 2 2 2 2 2 2 2 2 3 3 3 4 5 6 6 6 6 4 3 4 3 3 3 3 3 3
Wind_Direction
198 198 198 199 199 196 200 203 202 197 194 194 195 197 198 199 197 198 205 200 207 213 210 212 222 215 215 217 214 214 219 217 254 270 241 255 257 272 288 286 280 280 288
200 197 199 198 194 196 202 202 197 196 195 195 192 195 198 198 196 199 203 200 204 210 211 210 220 212 219 218 214 220 224 217 234 267 269 258 254 264 272 283 294 293 285
195 195 197 196 195 199 202 197 192 192 191 190 189 194 197 197 196 199 200 201 205 209 207 208 214 207 220 220 217 221 223 222 221 247 268 257 262 272 283 285 285 286 293
195 194 198 201 199 199 195 191 190 189 188 189 191 193 195 193 194 194 195 199 203 206 205 206 208 206 216 215 218 222 217 221 227 243 261 267 264 269 269 276 288 281 288
195 200 206 202 195 191 190 190 186 187 189 186 185 188 188 190 194 191 192 194 196 199 202 206 209 211 216 213 214 213 205 216 229 241 255 264 262 263 264 263 280 290 282
200 208 205 194 190 190 190 185 182 184 182 180 185 187 190 196 194 189 186 188 190 193 200 205 208 209 217 224 233 228 213 214 224 231 246 252 258 253 258 268 277 299 294
203 206 199 192 191 191 184 180 185 185 178 182 187 187 193 196 188 187 186 181 186 193 195 193 199 205 201 199 227 238 243 246 237 227 237 246 254 249 251 262 260 263 269
203 204 198 191 190 184 179 185 187 180 181 186 188 188 187 191 186 186 181 179 181 188 191 189 190 195 200 196 192 204 227 243 248 244 230 242 247 245 232 240 252 269 274
206 206 200 190 184 181 184 187 184 177 182 185 182 181 184 189 186 181 171 170 172 182 184 183 184 194 210 203 187 200 227 254 268 270 275 286 294 297 296 287 300 303 292
212 208 197 187 184 186 187 182 176 176 180 175 177 181 180 182 182 177 169 165 170 176 173 185 196 200 208 203 191 192 215 235 236 267 296 313 310 303 308 268 228 258 280
212 198 189 186 184 182 175 170 164 162 161 166 169 173 177 179 178 178 177 172 174 173 177 184 198 200 204 209 210 202 225 223 186 185 246 286 299 293 288 276 242 227 246
182 184 186 182 172 163 163 164 161 160 163 167 166 167 175 178 178 184 184 182 173 169 179 183 192 194 201 209 218 228 228 183 134 161 237 263 270 275 278 279 271 259 245
173 183 178 167 164 164 165 164 162 164 169 173 171 176 177 173 181 184 182 177 173 167 172 180 183 182 176 184 213 213 171 145 166 212 244 253 254 264 277 290 293 290 289
181 181 171 164 164 163 165 166 169 172 174 175 177 180 175 174 177 174 170 166 165 158 152 161 163 157 145 170 184 170 150 188 203 221 246 264 274 279 282 280 288 303 304
183 178 172 167 165 163 164 172 176 184 180 178 182 178 177 188 193 180 165 163 161 158 138 128 135 148 158 167 170 180 179 184 236 242 242 260 271 282 288 289 281 291 284
176 176 172 164 157 155 147 114 98 138 158 163 167 168 180 176 169 173 172 169 164 158 143 155 173 181 189 193 196 206 210 210 217 225 237 249 261 272 283 287 284 278 283
182 178 172 165 161 162 159 156 140 101 117 138 149 154 155 159 162 165 165 166 169 164 161 174 185 192 196 198 200 205 217 217 209 212 223 236 250 261 271 280 285 286 285
173 173 169 168 164 162 164 163 157 153 150 137 144 148 150 155 159 161 160 152 167 172 174 180 187 190 192 195 199 204 210 213 212 211 218 229 238 252 263 271 277 280 287
164 165 158 151 147 148 148 147 145 147 147 142 131 143 149 151 156 164 162 163 173 179 182 185 184 185 190 195 198 202 205 216 216 212 221 228 233 238 254 264 275 293 296
159 153 145 144 141 144 147 149 149 150 150 153 158 159 154 150 158 166 167 167 171 179 182 183 183 187 190 193 196 197 205 214 211 216 223 231 234 233 245 259 268 276 277
152 148 140 138 146 154 155 156 156 156 156 158 164 170 170 162 166 171 173 174 177 181 181 181 185 188 188 190 193 198 205 214 212 213 218 223 228 236 242 251 261 267 276
146 143 145 148 151 155 153 151 150 151 152 153 150 155 157 140 153 162 167 168 166 171 172 174 185 191 193 194 196 199 207 214 214 211 213 218 226 234 240 249 261 268 275
139 139 140 145 147 150 143 142 147 150 153 153 153 154 157 156 156 156 156 153 150 156 161 168 179 192 198 203 202 201 208 216 215 205 206 215 221 229 235 245 256 266 274
137 142 146 146 144 149 150 150 149 150 151 150 154 157 158 155 153 152 151 151 153 160 165 172 185 195 206 216 216 212 213 218 211 203 202 210 221 231 235 245 254 261 268
135 141 147 151 153 152 149 148 147 149 149 150 151 153 151 148 151 156 158 157 160 168 179 185 188 191 202 218 226 227 228 235 234 215 199 202 215 225 232 242 251 261 264
137 142 147 148 149 150 151 152 151 152 152 152 154 157 159 161 164 168 167 165 167 176 189 198 199 206 218 226 228 234 243 244 241 236 215 196 205 221 226 235 244 253 262